This is the latest recevied weather packets stored in our database for station/object VK4AB-13. If no packets are shown the sender has not sent any weather packets the latest 10 day(s).
| Time | Temp. | Humidity | Pressure | Rain* | Wind** | Luminosity | Snow |
|---|---|---|---|---|---|---|---|
| 1777757932 | 16.67° C | 95% | 1020.8 hPa | 0 mm | - | 214 W/m² | - |
| 1777757632 | 16.11° C | 95% | 1020.9 hPa | 0 mm | - | 104 W/m² | - |
| 1777757332 | 16.11° C | 95% | 1020.9 hPa | 0 mm | - | 214 W/m² | - |
| 1777757032 | 16.11° C | 95% | 1020.9 hPa | 0 mm | - | 179 W/m² | - |
| 1777756732 | 16.11° C | 95% | 1020.8 hPa | 0 mm | - | 69 W/m² | - |
| 1777756432 | 16.11° C | 95% | 1020.7 hPa | 0 mm | - | 35 W/m² | - |
| 1777756132 | 16.11° C | 95% | 1020.8 hPa | 0 mm | - | 53 W/m² | - |
| 1777755832 | 15.56° C | 95% | 1020.8 hPa | 0 mm | - | 69 W/m² | - |
| 1777755532 | 15.56° C | 95% | 1020.8 hPa | 0 mm | - | 63 W/m² | - |
| 1777755232 | 15.56° C | 95% | 1020.8 hPa | 0 mm | - | 26 W/m² | - |
| 1777754932 | 15.56° C | 94% | 1020.6 hPa | 0 mm | - | 33 W/m² | - |
| 1777754737 | 15.56° C | 94% | 1020.7 hPa | 0 mm | - | 53 W/m² | - |
| 1777754632 | 15.56° C | 94% | 1020.7 hPa | 0 mm | - | 53 W/m² | - |
| 1777754501 | 15.56° C | 94% | 1020.5 hPa | 0 mm | - | 11 W/m² | - |
| 1777754332 | 15.56° C | 94% | 1020.5 hPa | 0 mm | - | 11 W/m² | - |
| 1777754118 | 15.56° C | 94% | 1020.4 hPa | 0 mm | - | 11 W/m² | - |
| 1777754071 | 15.56° C | 94% | 1020.4 hPa | 0 mm | - | 5 W/m² | - |
| 1777754071 | 15.56° C | 94% | 1020.4 hPa | 0 mm | - | 5 W/m² | - |
| 1777754032 | 15.56° C | 94% | 1020.4 hPa | 0 mm | - | 11 W/m² | - |
| 1777753732 | 15.56° C | 94% | 1020.4 hPa | 0 mm | - | 5 W/m² | - |
| 1777753432 | 15.56° C | 94% | 1020.4 hPa | 0 mm | - | 5 W/m² | - |
| 1777753132 | 15.56° C | 94% | 1020.4 hPa | 0 mm | - | 0 W/m² | - |
| 1777752832 | 15.56° C | 94% | 1020.4 hPa | 0 mm | - | 0 W/m² | - |
| 1777752532 | 15.56° C | 94% | 1020.4 hPa | 0 mm | - | 0 W/m² | - |
| 1777752232 | 15.56° C | 94% | 1020.3 hPa | 0 mm | - | 0 W/m² | - |
* Rain latest hour (hover to see other rain measurements)
** Current wind speed in m/s (hover to see current wind gust speed)